This is the latest recevied weather packets stored in our database for station/object KD9NSC. If no packets are shown the sender has not sent any weather packets the latest 1 day(s).
| Time | Temp. | Humidity | Pressure | Rain* | Wind** | Luminosity | Snow |
|---|---|---|---|---|---|---|---|
| 1778033148 | 8.89° C | 72% | 1011.1 hPa | 0 mm | 0 m/s | 0 W/m² | - |
| 1778032845 | 8.89° C | 75% | 1011 hPa | 0 mm | 0 m/s | 0 W/m² | - |
| 1778032542 | 8.89° C | 73% | 1010.9 hPa | 0 mm | 0 m/s | 0 W/m² | - |
| 1778032238 | 8.89° C | 75% | 1011.2 hPa | 0 mm | 0 m/s | 0 W/m² | - |
| 1778031937 | 8.89° C | 72% | 1010.9 hPa | 0 mm | 0 m/s | 0 W/m² | - |
| 1778031632 | 8.89° C | 72% | 1010.9 hPa | 0 mm | 0 m/s | 0 W/m² | - |
| 1778031330 | 8.89° C | 73% | 1010.9 hPa | 0 mm | 0 m/s | 0 W/m² | - |
| 1778031026 | 8.89° C | 73% | 1011 hPa | 0 mm | 0 m/s | 0 W/m² | - |
| 1778030723 | 9.44° C | 72% | 1010.7 hPa | 0 mm | 0 m/s | 0 W/m² | - |
| 1778030420 | 9.44° C | 71% | 1010.7 hPa | 0 mm | 0 m/s | 0 W/m² | - |
| 1778030128 | 9.44° C | 73% | 1010.7 hPa | 0 mm | 0 m/s | 0 W/m² | - |
| 1778029813 | 9.44° C | 77% | 1010.5 hPa | 0 mm | 0 m/s | 0 W/m² | - |
| 1778029508 | 9.44° C | 82% | 1010.5 hPa | 0 mm | 0 m/s | 0 W/m² | - |
| 1778029204 | 9.44° C | 77% | 1010.5 hPa | 0 mm | 0 m/s | 0 W/m² | - |
| 1778028901 | 9.44° C | 75% | 1010.6 hPa | 0 mm | 0 m/s | 0 W/m² | - |
| 1778028596 | 9.44° C | 73% | 1010.5 hPa | 0 mm | 0 m/s | 0 W/m² | - |
| 1778028294 | 9.44° C | 76% | 1010.2 hPa | 0 mm | 0 m/s | 0 W/m² | - |
| 1778027990 | 10° C | 81% | 1010.2 hPa | 0 mm | 0 m/s | 0 W/m² | - |
| 1778027687 | 10° C | 76% | 1010.2 hPa | 0 mm | 0 m/s | 1 W/m² | - |
| 1778027383 | 10° C | 77% | 1010.3 hPa | 0 mm | 0 m/s | 1 W/m² | - |
| 1778027080 | 10° C | 79% | 1010.2 hPa | 0 mm | 0 m/s | 1 W/m² | - |
| 1778026775 | 10° C | 79% | 1010 hPa | 0 mm | 0 m/s | 2 W/m² | - |
| 1778026472 | 10° C | 77% | 1010 hPa | 0 mm | 0 m/s | 2 W/m² | - |
| 1778026169 | 10° C | 75% | 1010.1 hPa | 0 mm | 0 m/s | 3 W/m² | - |
| 1778025867 | 10° C | 74% | 1010 hPa | 0 mm | 0 m/s | 3 W/m² | - |
* Rain latest hour (hover to see other rain measurements)
** Current wind speed in m/s (hover to see current wind gust speed)